Terminal Aerodrome Forecast
Issued by NWS Des Moines, IA

Home | Current Version | Previous Version | Text Only | Print | Product List | Glossary On
Versions: 1 2 3 4 5 6 7 8 9 10 11 12 13 14 15 16 17 18 19
000
FTUS43 KDMX 232339
TAFALO
TAF
KALO 232339Z 2400/2424 04014G23KT 5SM -RA OVC015
     FM240200 04018G27KT 3SM -RA BR OVC009
     FM240700 04020G31KT 3SM -RASN OVC008
     FM241300 02024G36KT 1SM -SN OVC007
     FM241600 01027G37KT 1/2SM -SN BLSN OVC004=

USA.gov is the U.S. government's official web portal to all federal, state and local government web resources and services.